Terminal Aerodrome Forecast
Issued by NWS Amarillo, TX

Home | Current Version | Previous Version | Text Only | Print | Product List | Glossary On
Versions: 1 2 3 4 5 6 7 8 9 10 11 12 13 14 15 16 17 18 19
000
FTUS44 KAMA 041720
TAFGUY
TAF
KGUY 041720Z 0418/0518 18008KT P6SM FEW090 SCT200
     FM051300 33008KT P6SM FEW120 FEW300=

USA.gov is the U.S. government's official web portal to all federal, state and local government web resources and services.